sat.trackr.live / text

‹ back to catalog

STARLINK-34107

NORAD 63960 · 2025-099J

PAYLOAD ACTIVE UNKNOWN

§ Identity

Operator
Country
US
Launch date
2025-05-13
Launch site
AFETR
Launch vehicle
Mass (kg)
RCS (m²)

Purposes: comms

External: N2YO · Heavens-Above · Gunter

§ Orbital elements

Epoch: 2026-09-20T23:44:32.914176Z

Period
94.27 min
Inclination
42.9987°
Eccentricity
0.0000952
Mean motion
15.27588881 rev/d
Perigee alt
482.4 km
Apogee alt
483.7 km
Semi-major
6,861.2 km
B*
4.9459e-4
RAAN
153.3715°
Arg perigee
262.0864°
Mean anomaly
97.9879°
Rev number
7,720

§ Raw data

STARLINK-341071 63960U 25099J   26263.98926984  .00013376  00000+0  49459-3 0  99962 63960  42.9987 153.3715 0000952 262.0864  97.9879 15.27588881 77202

JSON: /api/v1/satellites/63960 · /tle

For live sub-satellite position, see the globe view (requires WebGL).

§ Visibility from observer

Set your observer location to see the next 7 days of passes ≥ 10°. The values pass through the URL so the page stays shareable.

No JS? Fill the form by hand. The geolocation button needs JavaScript.